• In United Kingdom
  • List of Countries
  • For 7 days
  • Water Temperature
  • Satellite Maps
  • Weather Map
  • Weather Widgets
  • user-avatar
    Login

    Hourly Weather Innsbruck

    Today, 20 September, Wednesday

    Time Temperature Precipitation Wind Pressure Humidity
    00:00 -3°C° 0.4 mm 2 mps 594 mmHg 95%
    01:00 -3°C° 0.4 mm 2 mps 594 mmHg 95%
    02:00 -3°C° 0.3 mm 2 mps 594 mmHg 96%
    03:00 -3°C° 0.3 mm 2 mps 594 mmHg 96%
    04:00 -3°C° 0.3 mm 2 mps 595 mmHg 96%
    05:00 -3°C° 0.2 mm 2 mps 595 mmHg 95%
    06:00 -3°C° 0.2 mm 2 mps 595 mmHg 95%
    07:00 -3°C° 0.2 mm 2 mps 595 mmHg 94%
    08:00 -2°C° 0.1 mm 2 mps 595 mmHg 92%
    09:00 -1°C° 0.1 mm 2 mps 596 mmHg 89%
    10:00 +1°C° 0.1 mm 2 mps 596 mmHg 87%
    11:00 +1°C° 0.1 mm 2 mps 596 mmHg 85%
    12:00 +2°C° 0.1 mm 2 mps 597 mmHg 84%
    13:00 +3°C° 0.1 mm 2 mps 597 mmHg 82%
    14:00 +3°C° 0.1 mm 2 mps 597 mmHg 81%
    15:00 +3°C° 0.1 mm 2 mps 597 mmHg 80%
    16:00 +3°C° 0.1 mm 2 mps 596 mmHg 79%
    17:00 +1°C° 0 mm 2 mps 596 mmHg 84%
    18:00 +1°C° 0 mm 1 mps 596 mmHg 89%
    19:00 -1°C° 0 mm 1 mps 595 mmHg 93%
    20:00 -1°C° 0 mm 1 mps 596 mmHg 94%
    21:00 -2°C° 0 mm 1 mps 596 mmHg 94%
    22:00 -2°C° 0 mm 1 mps 596 mmHg 95%
    23:00 -3°C° 0 mm 1 mps 596 mmHg 94%

    Tomorrow, 21 September, Thursday

    Time Temperature Precipitation Wind Pressure Humidity
    00:00 -3°C° 0 mm 1 mps 596 mmHg 93%
    01:00 -4°C° 0 mm 1 mps 595 mmHg 92%
    02:00 -4°C° 0 mm 1 mps 595 mmHg 90%
    03:00 -4°C° 0 mm 1 mps 595 mmHg 87%
    04:00 -4°C° 0 mm 1 mps 595 mmHg 85%
    05:00 -4°C° 0 mm 1 mps 595 mmHg 82%
    06:00 -3°C° 0 mm 1 mps 595 mmHg 79%
    07:00 -2°C° 0 mm 1 mps 596 mmHg 77%
    08:00 0°C° 0 mm 1 mps 597 mmHg 73%
    09:00 +3°C° 0 mm 1 mps 598 mmHg 69%
    10:00 +6°C° 0 mm 1 mps 599 mmHg 64%
    11:00 +7°C° 0 mm 1 mps 599 mmHg 63%
    12:00 +8°C° 0 mm 1 mps 599 mmHg 62%
    13:00 +9°C° 0 mm 1 mps 599 mmHg 60%
    14:00 +8°C° 0 mm 1 mps 599 mmHg 62%
    15:00 +8°C° 0 mm 1 mps 598 mmHg 64%
    16:00 +8°C° 0 mm 1 mps 598 mmHg 65%
    17:00 +6°C° 0 mm 1 mps 597 mmHg 71%
    18:00 +3°C° 0 mm 1 mps 596 mmHg 77%
    19:00 +1°C° 0 mm 1 mps 595 mmHg 83%
    20:00 +1°C° 0 mm 1 mps 596 mmHg 82%
    21:00 0°C° 0 mm 1 mps 596 mmHg 81%
    22:00 0°C° 0 mm 1 mps 596 mmHg 80%
    23:00 0°C° 0 mm 1 mps 596 mmHg 78%

    Day after tomorrow, 22 September, Friday

    Time Temperature Precipitation Wind Pressure Humidity
    00:00 0°C° 0 mm 1 mps 596 mmHg 77%
    01:00 0°C° 0 mm 1 mps 596 mmHg 75%
    02:00 0°C° 0 mm 1 mps 596 mmHg 74%
    03:00 0°C° 0 mm 1 mps 596 mmHg 73%
    04:00 0°C° 0 mm 1 mps 596 mmHg 72%
    05:00 +1°C° 0 mm 1 mps 596 mmHg 71%
    06:00 +1°C° 0 mm 1 mps 597 mmHg 70%
    07:00 +2°C° 0 mm 1 mps 597 mmHg 69%
    08:00 +4°C° 0 mm 1 mps 598 mmHg 66%
    09:00 +7°C° 0 mm 1 mps 599 mmHg 63%
    10:00 +10°C° 0 mm 1 mps 600 mmHg 60%
    11:00 +10°C° 0 mm 1 mps 601 mmHg 59%
    12:00 +11°C° 0 mm 1 mps 601 mmHg 57%
    13:00 +12°C° 0 mm 1 mps 601 mmHg 56%
    14:00 +11°C° 0 mm 1 mps 601 mmHg 58%
    15:00 +10°C° 0 mm 2 mps 601 mmHg 60%
    16:00 +9°C° 0 mm 2 mps 601 mmHg 62%
    17:00 +8°C° 0 mm 1 mps 600 mmHg 71%
    18:00 +5°C° 0 mm 1 mps 599 mmHg 79%
    19:00 +3°C° 0 mm 1 mps 598 mmHg 87%
    20:00 +3°C° 0 mm 1 mps 598 mmHg 88%
    21:00 +2°C° 0 mm 1 mps 598 mmHg 88%
    22:00 +2°C° 0 mm 1 mps 599 mmHg 89%
    23:00 +2°C° 0 mm 1 mps 599 mmHg 89%

    23 September, Saturday

    Time Temperature Precipitation Wind Pressure Humidity
    00:00 +1°C° 0 mm 1 mps 599 mmHg 88%
    01:00 +1°C° 0 mm 1 mps 599 mmHg 88%
    02:00 +1°C° 0 mm 1 mps 598 mmHg 87%
    03:00 +1°C° 0 mm 1 mps 598 mmHg 86%
    04:00 +1°C° 0 mm 1 mps 598 mmHg 85%
    05:00 +2°C° 0 mm 1 mps 598 mmHg 83%
    06:00 +2°C° 0 mm 1 mps 599 mmHg 82%
    07:00 +3°C° 0 mm 1 mps 599 mmHg 80%
    08:00 +5°C° 0 mm 1 mps 600 mmHg 73%
    09:00 +7°C° 0 mm 1 mps 601 mmHg 66%
    10:00 +9°C° 0 mm 0 mps 602 mmHg 60%
    11:00 +11°C° 0 mm 1 mps 602 mmHg 58%
    12:00 +11°C° 0 mm 1 mps 602 mmHg 57%
    13:00 +12°C° 0 mm 1 mps 602 mmHg 55%
    14:00 +11°C° 0 mm 1 mps 602 mmHg 58%
    15:00 +11°C° 0 mm 1 mps 602 mmHg 60%
    16:00 +11°C° 0 mm 1 mps 601 mmHg 63%
    17:00 +8°C° 0.2 mm 1 mps 600 mmHg 72%
    18:00 +6°C° 0.2 mm 1 mps 599 mmHg 80%
    19:00 +2°C° 0.2 mm 0 mps 598 mmHg 88%
    20:00 +2°C° 0 mm 0 mps 598 mmHg 89%
    21:00 +3°C° 0 mm 1 mps 598 mmHg 89%
    22:00 +2°C° 0 mm 1 mps 598 mmHg 89%
    23:00 +2°C° 0 mm 1 mps 598 mmHg 89%

    24 September, Sunday

    Time Temperature Precipitation Wind Pressure Humidity
    00:00 +2°C° 0 mm 1 mps 598 mmHg 88%
    01:00 +2°C° 0 mm 1 mps 598 mmHg 87%
    02:00 +2°C° 0 mm 1 mps 598 mmHg 87%
    03:00 +2°C° 0 mm 1 mps 598 mmHg 87%
    04:00 +1°C° 0 mm 1 mps 597 mmHg 87%
    05:00 +2°C° 0 mm 1 mps 598 mmHg 87%
    06:00 +2°C° 0 mm 1 mps 598 mmHg 86%
    07:00 +3°C° 0 mm 1 mps 598 mmHg 85%
    08:00 +5°C° 0 mm 1 mps 599 mmHg 78%
    09:00 +8°C° 0 mm 1 mps 600 mmHg 70%
    10:00 +10°C° 0 mm 1 mps 602 mmHg 63%
    11:00 +11°C° 0 mm 1 mps 602 mmHg 60%
    12:00 +11°C° 0 mm 1 mps 602 mmHg 58%
    13:00 +12°C° 0 mm 1 mps 602 mmHg 56%
    14:00 +10°C° 0 mm 2 mps 602 mmHg 59%
    15:00 +10°C° 0 mm 2 mps 601 mmHg 62%
    16:00 +9°C° 0 mm 2 mps 601 mmHg 66%
    17:00 +7°C° 0.1 mm 2 mps 600 mmHg 74%
    18:00 +6°C° 0.1 mm 1 mps 600 mmHg 83%
    19:00 +4°C° 0.1 mm 1 mps 599 mmHg 91%
    20:00 +4°C° 0 mm 1 mps 599 mmHg 92%
    21:00 +4°C° 0 mm 1 mps 599 mmHg 93%
    22:00 +3°C° 0 mm 1 mps 599 mmHg 95%
    23:00 +3°C° 0 mm 1 mps 599 mmHg 95%

    25 September, Monday

    Time Temperature Precipitation Wind Pressure Humidity
    00:00 +2°C° 0 mm 1 mps 599 mmHg 95%
    01:00 +2°C° 0 mm 1 mps 599 mmHg 95%
    02:00 +2°C° 0 mm 1 mps 599 mmHg 94%
    03:00 +1°C° 0 mm 1 mps 598 mmHg 93%
    04:00 +1°C° 0 mm 1 mps 598 mmHg 92%
    05:00 +1°C° 0 mm 1 mps 598 mmHg 90%
    06:00 +1°C° 0 mm 1 mps 598 mmHg 87%
    07:00 +2°C° 0 mm 1 mps 599 mmHg 84%
    08:00 +4°C° 0 mm 1 mps 600 mmHg 76%
    09:00 +7°C° 0 mm 1 mps 601 mmHg 68%
    10:00 +9°C° 0 mm 1 mps 602 mmHg 60%
    11:00 +10°C° 0 mm 1 mps 602 mmHg 56%
    12:00 +11°C° 0 mm 1 mps 602 mmHg 53%
    13:00 +12°C° 0 mm 2 mps 602 mmHg 50%
    14:00 +10°C° 0 mm 2 mps 601 mmHg 52%
    15:00 +10°C° 0 mm 2 mps 601 mmHg 55%
    16:00 +10°C° 0 mm 2 mps 601 mmHg 57%
    17:00 +8°C° 0 mm 1 mps 600 mmHg 67%
    18:00 +5°C° 0 mm 1 mps 599 mmHg 77%
    19:00 +3°C° 0 mm 1 mps 597 mmHg 87%
    20:00 +2°C° 0 mm 1 mps 597 mmHg 87%
    21:00 +2°C° 0 mm 1 mps 597 mmHg 87%
    22:00 +2°C° 0 mm 1 mps 597 mmHg 88%
    23:00 +2°C° 0 mm 1 mps 597 mmHg 87%
    Show more